North Bend, OR

3:19 AM PDT on August 25, 2016 (GMT -0700)
North Bend Municipal

Weather History for KOTH - January, 2013

Change the Weather History Date:

Monday, January 28, 2013

  Actual Average Record
Temperature  
Mean Temperature 47 °F 46 °F  
Max Temperature 48 °F 52 °F 72 °F (1931)
Min Temperature 45 °F 40 °F 20 °F (1980)
Degree Days  
Heating Degree Days 18 19  
Month to date heating degree days 573 534  
Since 1 July heating degree days 2448 2595  
Cooling Degree Days 0 0  
Month to date cooling degree days 0 0  
Year to date cooling degree days 0 0  
Moisture  
Dew Point 44 °F    
Average Humidity 92    
Maximum Humidity 100    
Minimum Humidity 86    
Precipitation  
Precipitation 0.09 in 0.28 in 1.97 in (1954)
Month to date precipitation 3.76 9.32  
Year to date precipitation 3.76 9.32  
Sea Level Pressure  
Sea Level Pressure 30.31 in    
Wind  
Wind Speed 10 mph (NW)    
Max Wind Speed 16 mph    
Max Gust Speed 21 mph    
Visibility 9 miles    
Events      
T = Trace of Precipitation, MM = Missing Value Source: NWS Daily Summary

Daily Weather History Graph

Daily Weather History Graph

Search for Another Location

Airport or City:

Trip Planner

Search our weather history database for the weather conditions in past years. The results will help you decide how hot, cold, wet, or windy it might be!

Date:

Astronomy

Jan. 28, 2013 Rise Set
Actual Time 7:36 AM PST 5:23 PM PST
Civil Twilight 7:06 AM PST 5:54 PM PST
Nautical Twilight 6:31 AM PST 6:28 PM PST
Astronomical Twilight 5:58 AM PST 7:02 PM PST
Moon 7:29 PM PST (1/28) 8:01 AM PST (1/28)
Length of Visible Light 10h 48m
Length of Day
9h 47m
Full, 97% of the Moon is Illuminated
Jan 28
Full
Feb 3
Last Quarter
Feb 9
New
Feb 17
First Quarter
Feb 25
Full

Hourly Weather History & Observations

Time (PST) Temp. Windchill Dew Point Humidity Pressure Visibility Wind Dir Wind Speed Gust Speed Precip Events Conditions
12:15 AM 44.6 °F 40.2 °F 42.8 °F 93% 30.20 in 10.0 mi NNW 8.1 mph - 0.01 in   Overcast
12:35 AM 46.4 °F 43.5 °F 44.6 °F 93% 30.20 in 10.0 mi NW 5.8 mph - 0.01 in   Overcast
12:55 AM 46.4 °F 41.5 °F 44.6 °F 93% 30.20 in 10.0 mi NNW 10.4 mph - 0.01 in   Overcast
1:15 AM 46.4 °F 42.9 °F 42.8 °F 87% 30.20 in 10.0 mi NNW 6.9 mph - N/A   Mostly Cloudy
1:35 AM 46.4 °F 42.4 °F 42.8 °F 87% 30.21 in 10.0 mi NNW 8.1 mph - N/A   Mostly Cloudy
1:55 AM 46.4 °F 41.1 °F 42.8 °F 87% 30.22 in 10.0 mi NW 11.5 mph - N/A   Mostly Cloudy
2:15 AM 46.4 °F 41.5 °F 42.8 °F 87% 30.22 in 10.0 mi NNW 10.4 mph - N/A   Scattered Clouds
2:35 AM 46.4 °F 41.9 °F 42.8 °F 87% 30.23 in 10.0 mi NNW 9.2 mph 16.1 mph N/A   Mostly Cloudy
2:55 AM 44.6 °F 42.2 °F 42.8 °F 93% 30.24 in 10.0 mi NE 4.6 mph - N/A   Overcast
3:15 AM 44.6 °F 40.2 °F 42.8 °F 93% 30.25 in 10.0 mi NNE 8.1 mph - N/A   Overcast
3:35 AM 44.6 °F 40.7 °F 42.8 °F 93% 30.25 in 9.0 mi NNE 6.9 mph - N/A   Overcast
3:55 AM 44.6 °F 42.2 °F 42.8 °F 93% 30.24 in 10.0 mi WNW 4.6 mph - 0.01 in   Overcast
4:15 AM 46.4 °F 42.9 °F 42.8 °F 87% 30.24 in 10.0 mi WNW 6.9 mph - N/A   Overcast
4:35 AM 46.4 °F 41.9 °F 42.8 °F 87% 30.24 in 10.0 mi NW 9.2 mph - N/A   Overcast
4:55 AM 46.4 °F 42.4 °F 42.8 °F 87% 30.24 in 10.0 mi NW 8.1 mph - N/A   Overcast
5:15 AM 46.4 °F 42.4 °F 42.8 °F 87% 30.25 in 9.0 mi NW 8.1 mph - N/A   Overcast
5:35 AM 46.4 °F 42.9 °F 42.8 °F 87% 30.25 in 10.0 mi NNW 6.9 mph - 0.01 in   Overcast
5:55 AM 46.4 °F 42.9 °F 42.8 °F 87% 30.25 in 10.0 mi NNW 6.9 mph - 0.01 in   Overcast
6:15 AM 46.4 °F 39.8 °F 42.8 °F 87% 30.26 in 10.0 mi NW 16.1 mph 19.6 mph N/A   Overcast
6:35 AM 44.6 °F 40.7 °F 41.0 °F 87% 30.26 in 10.0 mi WNW 6.9 mph - 0.01 in   Overcast
7:15 AM 44.6 °F 43.1 °F 44.6 °F 100% 30.28 in 10.0 mi North 3.5 mph - N/A   Overcast
7:35 AM 44.6 °F 40.7 °F 42.8 °F 93% 30.28 in 9.0 mi NW 6.9 mph - 0.01 in   Mostly Cloudy
7:55 AM 44.6 °F - 44.6 °F 100% 30.28 in 10.0 mi Calm Calm - 0.01 in   Mostly Cloudy
8:15 AM 46.4 °F 40.1 °F 44.6 °F 93% 30.29 in 6.0 mi NW 15.0 mph - N/A   Overcast
8:35 AM 46.4 °F 40.4 °F 44.6 °F 93% 30.29 in 10.0 mi NW 13.8 mph 17.3 mph N/A   Overcast
9:15 AM 46.4 °F 42.4 °F 44.6 °F 93% 30.30 in 10.0 mi NW 8.1 mph - N/A   Overcast
9:35 AM 46.4 °F 41.1 °F 44.6 °F 93% 30.30 in 8.0 mi WNW 11.5 mph - N/A   Overcast
9:55 AM 46.4 °F 42.9 °F 44.6 °F 93% 30.31 in 6.0 mi NW 6.9 mph - N/A   Overcast
10:35 AM 46.4 °F 42.4 °F 46.4 °F 100% 30.32 in 10.0 mi NW 8.1 mph - 0.03 in   Mostly Cloudy
10:55 AM 48.2 °F - 44.6 °F 87% 30.32 in 10.0 mi WNW 11.5 mph - 0.03 in   Overcast
11:15 AM 48.2 °F - 46.4 °F 93% 30.33 in 10.0 mi WNW 12.7 mph - N/A   Overcast
11:35 AM 46.4 °F 41.1 °F 46.4 °F 100% 30.33 in 5.0 mi NW 11.5 mph 18.4 mph N/A   Overcast
11:55 AM 46.4 °F 41.5 °F 46.4 °F 100% 30.33 in 2.0 mi NW 10.4 mph - N/A   Overcast
12:15 PM 46.4 °F 41.5 °F 46.4 °F 100% 30.33 in 10.0 mi NW 10.4 mph - N/A   Mostly Cloudy
12:35 PM 46.4 °F 40.7 °F 44.6 °F 93% 30.32 in 5.0 mi WNW 12.7 mph 20.7 mph N/A   Overcast
12:55 PM 48.2 °F - 46.4 °F 93% 30.32 in 10.0 mi WNW 15.0 mph - N/A   Overcast
1:15 PM 48.2 °F - 44.6 °F 87% 30.31 in 10.0 mi WNW 12.7 mph 16.1 mph N/A   Overcast
1:35 PM 48.2 °F - 46.4 °F 93% 30.32 in 9.0 mi WNW 11.5 mph - N/A   Mostly Cloudy
1:55 PM 48.2 °F - 44.6 °F 87% 30.32 in 10.0 mi WNW 15.0 mph 20.7 mph N/A   Mostly Cloudy
2:15 PM 48.2 °F - 44.6 °F 87% 30.32 in 10.0 mi WNW 13.8 mph - N/A   Overcast
2:35 PM 48.2 °F - 44.6 °F 87% 30.32 in 10.0 mi WNW 15.0 mph - N/A   Mostly Cloudy
2:55 PM 48.2 °F - 44.6 °F 87% 30.32 in 10.0 mi WNW 15.0 mph - N/A   Mostly Cloudy
3:15 PM 48.2 °F - 44.6 °F 87% 30.33 in 10.0 mi WNW 10.4 mph - N/A   Mostly Cloudy
3:35 PM 48.2 °F - 46.4 °F 93% 30.34 in 10.0 mi West 15.0 mph - N/A   Mostly Cloudy
3:55 PM 46.4 °F 41.5 °F 44.6 °F 93% 30.34 in 9.0 mi WNW 10.4 mph - N/A   Overcast
4:15 PM 46.4 °F 40.7 °F 46.4 °F 100% 30.35 in 2.0 mi NW 12.7 mph - 0.01 in   Overcast
4:35 PM 46.4 °F 42.9 °F 44.6 °F 93% 30.34 in 10.0 mi WNW 6.9 mph - 0.01 in   Overcast
4:55 PM 46.4 °F 39.8 °F 44.6 °F 93% 30.35 in 10.0 mi WNW 16.1 mph - 0.01 in   Overcast
5:15 PM 46.4 °F 41.9 °F 44.6 °F 93% 30.35 in 3.0 mi West 9.2 mph - N/A   Overcast
5:35 PM 46.4 °F 40.7 °F 44.6 °F 93% 30.36 in 10.0 mi WNW 12.7 mph - N/A   Overcast
5:55 PM 46.4 °F 41.5 °F 44.6 °F 93% 30.35 in 10.0 mi West 10.4 mph - N/A   Overcast
6:15 PM 46.4 °F 42.4 °F 44.6 °F 93% 30.35 in 10.0 mi West 8.1 mph - N/A   Mostly Cloudy
6:35 PM 46.4 °F 42.4 °F 44.6 °F 93% 30.35 in 10.0 mi West 8.1 mph - N/A   Overcast
6:55 PM 46.4 °F 40.7 °F 44.6 °F 93% 30.36 in 10.0 mi West 12.7 mph 16.1 mph N/A   Overcast
7:15 PM 46.4 °F 41.5 °F 44.6 °F 93% 30.37 in 10.0 mi WNW 10.4 mph - N/A   Overcast
7:35 PM 46.4 °F 42.4 °F 44.6 °F 93% 30.36 in 10.0 mi West 8.1 mph - N/A   Overcast
7:55 PM 46.4 °F 42.9 °F 44.6 °F 93% 30.36 in 10.0 mi West 6.9 mph - N/A   Mostly Cloudy
8:15 PM 46.4 °F 40.7 °F 44.6 °F 93% 30.37 in 3.0 mi NW 12.7 mph - N/A   Overcast
8:35 PM 46.4 °F 41.9 °F 44.6 °F 93% 30.37 in 10.0 mi WNW 9.2 mph - N/A   Overcast
8:55 PM 46.4 °F 40.4 °F 44.6 °F 93% 30.38 in 10.0 mi NW 13.8 mph - N/A   Overcast
9:15 PM 46.4 °F 41.5 °F 44.6 °F 93% 30.38 in 10.0 mi WNW 10.4 mph - N/A   Overcast
9:35 PM 46.4 °F 41.5 °F 44.6 °F 93% 30.37 in 10.0 mi WNW 10.4 mph - N/A   Overcast
9:55 PM 46.4 °F 41.1 °F 44.6 °F 93% 30.37 in 7.0 mi West 11.5 mph - N/A   Mostly Cloudy
10:15 PM 46.4 °F 40.4 °F 44.6 °F 93% 30.37 in 8.0 mi West 13.8 mph - N/A   Overcast
10:35 PM 46.4 °F 39.0 °F 44.6 °F 93% 30.37 in 9.0 mi WNW 19.6 mph - N/A   Overcast
10:55 PM 46.4 °F 41.1 °F 44.6 °F 93% 30.37 in 10.0 mi WNW 11.5 mph - N/A   Overcast
11:15 PM 46.4 °F 41.5 °F 44.6 °F 93% 30.38 in 10.0 mi WNW 10.4 mph - N/A   Overcast
11:35 PM 46.4 °F 40.7 °F 44.6 °F 93% 30.38 in 10.0 mi West 12.7 mph - N/A   Overcast
11:55 PM 46.4 °F 39.8 °F 46.4 °F 100% 30.38 in 3.0 mi West 16.1 mph - N/A   Overcast